This is the latest recevied weather packets stored in our database for station/object WD9GET. If no packets are shown the sender has not sent any weather packets the latest 10 day(s).
| Time | Temp. | Humidity | Pressure | Rain* | Wind** | Luminosity | Snow |
|---|---|---|---|---|---|---|---|
| 1778285521 | 23.89° C | 96% | 1007.9 hPa | 0 mm | - | 31 W/m² | - |
| 1778285460 | 23.89° C | 96% | 1007.9 hPa | 0 mm | - | 31 W/m² | - |
| 1778285367 | 23.89° C | 96% | 1007.9 hPa | 0 mm | - | 31 W/m² | - |
| 1778285306 | 23.89° C | 96% | 1007.9 hPa | 0 mm | - | 31 W/m² | - |
| 1778285241 | - | - | - | 0 mm | - | - | - |
| 1778285185 | 23.89° C | 95% | 1008.2 hPa | 0 mm | - | 38 W/m² | - |
| 1778285106 | 23.89° C | 95% | 1008.2 hPa | 0 mm | - | 38 W/m² | - |
| 1778285026 | 23.89° C | 95% | 1008.2 hPa | 0 mm | - | 38 W/m² | - |
| 1778284923 | 23.89° C | 95% | 1008.2 hPa | 0 mm | - | 38 W/m² | - |
| 1778284862 | 23.89° C | 95% | 1008.2 hPa | 0 mm | - | 38 W/m² | - |
| 1778284779 | 23.89° C | 95% | 1008.2 hPa | 0 mm | - | 38 W/m² | - |
| 1778284719 | 23.89° C | 95% | 1008.2 hPa | 0 mm | - | 38 W/m² | - |
| 1778284641 | 23.89° C | 95% | 1008.2 hPa | 0 mm | - | 38 W/m² | - |
| 1778284601 | 23.89° C | 95% | 1008.3 hPa | 0 mm | - | 40 W/m² | - |
| 1778284513 | 23.89° C | 95% | 1008.5 hPa | 0 mm | - | 43 W/m² | - |
| 1778284453 | 23.89° C | 95% | 1008.6 hPa | 0 mm | - | 43 W/m² | - |
| 1778284393 | 23.89° C | 95% | 1008.7 hPa | 0 mm | - | 43 W/m² | - |
| 1778284333 | 23.89° C | 95% | 1008.7 hPa | 0 mm | - | 46 W/m² | - |
| 1778284273 | 23.89° C | 95% | 1008.7 hPa | 0 mm | - | 50 W/m² | - |
| 1778284212 | 23.89° C | 95% | 1008.6 hPa | 0 mm | - | 52 W/m² | - |
| 1778284147 | 23.89° C | 95% | 1008.5 hPa | 0 mm | - | 54 W/m² | - |
| 1778284086 | 23.89° C | 95% | 1008.5 hPa | 0 mm | - | 54 W/m² | - |
| 1778284026 | 23.89° C | 95% | 1008.5 hPa | 0 mm | - | 52 W/m² | - |
| 1778283963 | 23.89° C | 95% | 1008.5 hPa | 0 mm | - | 55 W/m² | - |
| 1778283904 | 23.89° C | 95% | 1008.5 hPa | 0 mm | - | 58 W/m² | - |
* Rain latest hour (hover to see other rain measurements)
** Current wind speed in m/s (hover to see current wind gust speed)